Temp
25 24 24 23 23 21 23 25 26 26 26 24 24 24 24 22 24 23 20 20 21 20 20 19 19 19 19 19 19 18 18 18 18 18 18 18 18 18 18 18 19 19 19 19 18 19 19 18 19
25 24 23 20 22 23 23 25 25 25 24 21 23 23 24 23 20 18 19 19 21 20 19 19 19 19 19 18 18 18 18 18 18 18 18 18 18 18 18 18 18 18 18 18 18 18 18 18 19
25 24 22 21 21 23 23 25 25 26 22 25 24 22 22 21 19 19 21 20 20 20 20 19 19 19 18 18 18 18 18 18 18 18 18 18 18 18 18 18 18 18 18 18 18 18 18 18 19
24 22 21 23 23 25 25 26 24 24 25 25 23 23 22 22 20 22 21 21 20 20 19 19 19 18 18 18 18 18 18 18 18 18 18 18 18 18 18 18 18 18 18 18 18 18 18 18 18
24 20 22 23 24 25 25 25 23 24 25 25 24 23 22 21 22 21 21 20 20 19 19 19 19 18 18 18 18 18 18 18 18 19 19 18 18 18 18 18 18 17 18 18 18 18 18 18 18
22 20 22 22 23 25 24 24 24 25 24 23 23 22 21 21 21 20 21 20 20 20 19 19 19 19 18 18 18 18 18 18 18 18 18 18 18 18 17 17 18 18 18 18 17 17 17 18 19
22 21 22 23 24 25 24 23 24 24 23 24 22 21 20 19 20 21 20 20 20 19 19 19 19 19 18 18 18 18 18 18 18 18 18 17 17 17 18 18 18 17 17 17 17 17 17 18 19
21 21 22 22 24 25 26 25 25 25 24 23 23 22 20 19 19 20 20 19 19 19 19 19 19 18 18 19 19 19 18 18 18 17 17 17 17 17 17 17 17 17 16 16 17 18 19 19 19
21 21 21 23 23 25 24 26 25 25 22 24 23 22 23 21 19 19 18 18 18 18 19 19 19 19 19 19 19 19 18 18 17 18 18 18 17 17 17 16 16 16 16 16 18 18 18 18 18
21 20 21 23 24 25 24 25 24 25 24 24 23 21 20 19 18 18 19 19 18 18 19 19 19 19 19 18 18 18 18 18 18 18 18 18 18 17 17 16 16 17 17 17 17 17 17 18 18
22 21 22 23 23 23 24 24 23 23 24 23 23 20 19 19 19 18 19 19 18 18 19 18 19 19 19 18 18 18 17 18 18 18 18 18 18 17 17 17 17 17 17 17 17 17 17 17 17
22 22 22 24 23 24 24 23 24 22 24 24 22 20 20 19 19 19 18 18 18 18 18 18 20 19 19 18 19 18 18 18 18 18 18 18 18 17 17 17 17 17 17 17 17 17 16 16 16
21 23 22 24 22 23 23 23 23 22 22 22 21 21 20 20 20 20 19 18 18 18 17 18 20 20 20 18 19 19 19 18 18 18 18 18 18 17 17 17 17 17 16 16 16 16 16 16 16
22 23 22 21 23 21 25 24 24 24 21 20 21 21 20 20 20 20 19 18 18 18 19 19 20 20 19 19 19 19 19 18 18 18 18 17 18 17 17 17 16 16 16 16 16 16 16 15 15
22 22 21 21 21 23 22 24 24 22 21 20 20 19 19 20 20 20 20 19 19 20 20 20 20 19 18 19 19 19 19 19 18 18 17 17 17 17 17 16 16 16 16 15 15 15 15 15 15
21 21 20 22 21 22 22 22 23 21 20 19 19 18 19 19 20 21 21 20 20 20 19 20 20 18 18 18 19 19 19 18 18 17 17 17 17 17 17 16 16 16 15 15 15 15 15 15 14
19 18 19 22 21 21 22 22 22 20 19 19 18 19 19 19 19 21 21 21 21 20 20 19 19 18 18 18 18 18 18 18 17 17 17 17 17 17 16 16 16 16 15 15 15 14 14 14 14
18 19 20 20 21 20 20 21 19 19 20 19 18 19 20 21 21 20 21 21 20 20 19 19 18 18 18 18 18 18 17 17 17 17 17 17 17 16 16 16 16 15 15 15 14 14 13 13 12
20 20 21 21 20 20 19 20 19 18 18 19 18 18 18 19 19 20 19 19 18 18 19 18 17 18 18 18 17 17 17 16 16 17 17 17 17 16 16 16 16 15 15 14 14 13 13 12 12
20 21 21 20 20 20 18 19 18 18 19 19 19 18 18 19 17 16 17 18 18 18 18 17 17 18 19 19 18 17 17 17 17 17 17 16 16 16 16 16 16 15 15 14 14 13 13 12 11
21 20 20 21 20 20 20 20 20 20 20 21 20 19 19 18 17 15 15 16 16 17 17 17 17 19 19 18 18 17 17 17 16 16 17 17 16 16 16 16 15 15 14 14 13 12 12 11 10
19 20 19 18 18 19 19 18 20 20 19 20 19 17 18 18 17 15 14 15 16 16 16 17 19 19 18 18 18 18 18 17 17 17 17 17 16 16 15 15 15 14 13 13 12 11 11 11 10
20 18 18 17 16 18 19 18 18 18 20 18 16 17 18 17 17 15 14 15 16 17 17 19 19 18 18 18 18 18 18 18 17 17 16 16 16 15 15 14 13 13 13 12 12 11 11 10 10
16 16 16 15 16 16 18 18 19 18 19 18 16 17 17 14 15 13 14 15 16 17 18 18 18 18 18 17 17 17 16 16 16 16 15 15 14 14 13 12 12 12 11 11 11 10 10 10 9
16 16 15 16 16 17 17 17 21 19 18 17 16 15 14 12 13 12 12 13 15 16 17 18 17 17 16 16 16 16 16 15 15 15 14 14 13 12 12 11 11 11 10 10 10 9 9 8 8
16 17 16 18 16 17 17 17 19 16 14 13 13 12 12 12 11 11 11 13 15 16 16 16 16 16 16 16 16 15 15 15 14 13 13 12 12 12 11 11 10 10 9 9 9 8 8 8 7
16 17 17 16 16 16 16 17 18 15 14 13 12 12 12 11 10 10 11 13 14 14 15 15 15 14 14 15 15 15 14 14 13 13 12 12 11 11 10 9 9 9 8 8 7 7 7 7 6
18 17 18 14 18 19 17 17 18 16 14 13 13 12 11 10 10 9 9 11 12 14 14 14 14 15 14 14 14 14 13 13 12 12 11 11 10 9 9 8 8 8 7 7 7 6 6 5 5
18 18 15 16 16 17 18 18 16 17 14 13 12 11 11 10 10 9 9 11 12 13 14 14 14 14 14 13 13 12 12 11 11 10 10 9 9 8 8 8 7 7 7 6 6 5 5 5 5
18 19 18 16 16 14 15 17 16 14 13 13 12 11 11 11 10 9 9 11 11 12 13 13 13 13 12 12 11 11 10 10 10 9 9 8 8 8 7 7 7 6 6 5 5 5 4 4 4
Height
778 778 779 779 805 811 816 804 787 791 788 782 781 786 792 794 797 817 797 799 801 805 809 811 813 816 817 819 819 820 821 821 821 821 821 821 822 822 821 822 822 823 823 822 822 821 820 819 819
778 778 779 788 813 824 817 791 793 786 783 783 782 786 791 798 792 795 798 799 801 804 807 811 813 815 817 819 820 821 822 823 823 823 823 823 823 824 823 823 824 824 824 824 824 823 822 821 821
777 778 785 798 813 820 813 787 785 780 782 780 785 784 789 795 793 793 796 799 802 805 807 810 813 815 817 819 821 822 823 824 825 825 825 825 825 825 826 826 826 826 826 826 825 825 824 822 822
777 779 787 803 807 792 788 779 779 784 780 777 781 794 788 788 789 792 795 799 802 805 809 811 814 815 818 820 822 823 824 825 826 827 827 828 827 828 828 829 829 829 828 828 828 828 827 825 824
775 783 801 805 798 785 779 773 778 783 780 780 779 793 793 789 790 792 796 800 802 806 810 813 815 816 818 820 822 823 825 826 827 828 829 828 828 829 830 830 830 830 830 830 830 830 829 827 826
784 785 807 811 799 781 776 772 774 778 779 782 784 790 793 789 791 794 796 800 804 806 810 814 816 817 819 821 822 823 825 827 828 828 829 829 830 831 831 832 832 832 832 832 831 832 831 829 828
785 794 801 797 794 785 779 770 776 778 782 781 778 793 792 791 791 794 798 801 805 808 810 813 816 818 820 822 823 824 826 827 828 829 830 830 831 832 833 834 834 834 834 833 833 833 833 832 831
780 786 794 793 793 787 766 769 765 772 780 772 774 790 794 785 790 792 797 802 805 808 810 813 815 818 821 823 825 826 827 828 829 830 830 831 832 833 834 835 836 836 835 835 835 834 834 833 834
772 795 801 787 789 776 767 769 765 764 774 772 772 774 773 779 788 794 800 804 806 809 811 813 815 818 820 823 825 827 828 829 829 830 831 832 833 834 835 836 837 837 837 837 836 836 836 835 835
778 793 787 771 769 770 769 767 767 769 774 775 775 774 774 779 786 792 797 801 804 806 809 813 817 819 821 823 825 827 828 829 829 830 832 833 834 835 836 836 837 837 838 838 838 838 838 837 836
772 782 771 766 764 764 767 769 767 771 778 767 769 774 776 780 786 790 794 796 798 804 808 812 815 818 820 823 825 827 828 829 830 831 832 833 835 836 837 838 839 839 840 840 840 840 839 838 838
775 766 766 761 761 763 768 764 767 767 760 752 758 764 773 778 781 785 791 795 799 803 808 811 814 816 818 822 824 825 827 828 829 831 832 833 835 836 838 839 839 840 841 841 842 841 841 840 839
770 762 762 759 762 761 762 768 768 766 759 754 756 764 768 773 778 784 789 794 798 801 806 810 813 815 817 821 823 825 827 829 830 831 832 834 835 836 838 840 841 842 842 843 842 842 842 841 841
759 760 761 761 760 762 763 764 762 760 758 758 758 763 768 772 775 782 788 791 795 799 802 806 811 815 816 819 822 825 826 828 830 832 833 834 835 837 838 840 842 843 843 843 843 842 842 841 842
756 767 765 762 762 762 761 768 765 761 758 762 765 767 768 771 775 776 779 784 789 793 798 803 808 812 814 818 821 823 826 828 830 831 833 835 836 837 839 840 842 843 844 843 843 842 842 842 841
765 767 779 761 762 760 766 779 763 760 763 768 772 773 769 772 771 775 778 782 787 792 795 801 806 809 814 818 822 824 826 828 829 831 833 835 837 838 839 840 842 842 842 842 843 842 841 841 840
768 781 777 768 761 764 767 773 762 763 766 771 773 769 769 773 772 773 777 779 784 789 793 798 802 807 812 817 820 824 826 828 830 831 833 835 837 838 839 840 841 841 841 841 842 841 841 840 840
779 777 771 775 767 767 773 773 771 766 766 769 769 766 766 768 766 770 772 776 781 785 791 795 799 805 810 815 819 823 826 829 830 832 833 834 836 837 839 839 840 840 840 841 842 841 841 841 840
764 765 767 763 762 768 777 775 773 770 770 769 769 768 768 769 768 771 773 775 779 783 788 791 797 803 808 812 817 821 824 827 829 831 833 834 835 836 837 838 838 839 839 840 841 840 841 840 839
762 763 766 766 764 767 778 777 775 771 765 763 764 768 769 768 767 769 772 774 775 779 786 791 796 801 806 811 815 819 823 826 828 829 831 833 834 835 836 836 837 837 837 838 838 838 838 837 837
759 762 765 764 768 770 773 779 771 763 762 759 761 763 764 765 767 769 771 771 774 778 784 789 794 801 806 811 814 818 822 824 826 827 829 829 831 831 832 833 833 834 834 834 834 835 835 835 836
770 758 761 769 778 787 776 799 773 767 765 762 762 765 764 763 765 768 770 771 774 779 785 790 796 801 806 810 813 815 817 819 821 823 824 826 827 828 829 830 830 830 831 831 832 832 832 833 833
761 760 767 775 786 782 784 794 779 771 768 766 767 766 764 764 764 766 769 773 776 781 786 791 797 802 805 809 811 814 815 817 819 821 822 823 824 825 826 826 827 827 828 829 829 830 831 831 831
762 771 778 785 789 802 785 788 780 774 764 764 766 765 764 766 765 767 770 773 777 782 786 791 796 801 805 807 810 813 815 817 818 819 820 821 822 822 822 823 824 825 825 826 826 827 828 828 828
764 775 800 802 806 801 785 790 766 760 762 762 765 765 767 768 767 769 770 773 777 782 787 792 796 801 805 808 810 811 813 814 816 817 818 819 820 821 822 822 823 824 824 824 825 825 825 825 825
770 772 791 795 806 793 786 789 766 764 767 766 767 769 769 768 769 769 771 774 778 783 787 793 797 801 803 805 807 809 811 812 813 815 816 818 819 820 821 821 821 822 822 822 822 822 821 820 820
773 778 773 788 793 795 787 776 761 767 768 769 771 771 771 771 771 772 773 775 779 783 789 793 797 800 803 804 807 809 810 812 813 815 816 817 818 818 819 820 820 820 820 819 818 817 816 815 814
763 766 778 794 792 789 791 784 773 769 771 773 774 773 774 775 775 776 776 779 783 787 791 795 798 800 803 806 808 809 811 812 814 815 816 816 817 817 818 818 818 817 816 815 814 812 811 809 807
767 771 781 784 794 796 790 780 764 760 766 771 773 774 775 776 777 779 780 783 786 790 794 797 800 802 804 806 808 810 812 813 814 814 814 815 815 815 815 815 814 813 811 810 809 807 805 803 801
761 763 767 789 794 802 795 782 759 762 763 766 771 774 776 777 779 782 784 787 790 794 797 799 801 803 805 807 809 810 811 812 813 813 813 813 813 812 812 811 810 809 807 806 804 801 799 797 794
Wind_Speed
5 3 4 3 3 4 3 5 1 3 1 1 3 4 6 3 3 3 7 7 22 22 18 15 13 12 11 11 11 10 10 9 10 10 11 11 12 12 12 12 11 12 12 13 13 12 12 14 14
1 6 2 2 4 1 5 2 5 5 5 7 6 4 3 2 2 6 13 16 24 23 19 15 14 14 13 12 12 11 10 10 10 11 11 11 12 12 12 12 12 12 11 11 11 12 13 13 13
2 3 3 3 3 4 5 5 6 2 7 3 4 4 6 6 2 15 7 24 24 23 20 17 16 15 14 13 13 11 10 10 11 11 11 11 12 13 13 14 14 13 13 14 14 14 14 14 13
5 3 3 3 5 5 5 3 6 7 3 1 4 6 2 2 15 13 23 26 25 22 19 19 16 16 15 14 13 12 11 10 10 10 10 10 12 13 14 14 13 13 14 14 14 14 15 16 14
3 2 1 2 4 4 4 2 8 7 5 4 3 6 3 2 7 21 28 26 25 23 20 18 16 16 16 14 14 13 12 10 11 10 8 8 11 13 15 13 12 12 14 15 15 14 15 17 15
2 2 2 4 4 4 3 5 7 5 4 4 5 6 3 8 21 29 28 26 24 24 21 19 16 16 16 15 15 14 13 11 10 9 8 13 14 13 13 14 14 14 15 15 15 16 17 17 17
4 4 5 4 4 3 5 8 7 7 7 4 8 6 2 5 23 30 27 25 24 23 22 20 18 17 16 16 15 14 13 11 11 11 11 11 13 13 14 14 14 14 15 15 16 16 17 16 16
4 3 4 4 4 5 3 7 6 7 5 2 4 6 5 8 27 29 26 25 24 23 22 21 19 19 19 16 13 14 13 13 12 12 12 14 13 13 13 14 14 14 15 15 13 13 13 13 15
4 2 4 6 6 5 3 5 2 3 7 3 6 6 2 33 30 25 21 20 21 22 22 22 21 21 19 17 16 14 14 13 14 13 12 13 14 16 17 14 14 14 15 14 13 12 12 12 12
4 5 9 5 5 3 3 5 8 6 5 4 3 5 22 30 28 24 22 20 21 24 25 25 22 21 20 18 17 18 17 15 13 13 13 12 12 11 11 13 13 13 13 14 15 15 15 14 14
5 6 5 5 5 1 3 2 5 7 4 8 12 10 16 24 22 22 23 25 28 26 27 27 25 23 22 20 18 18 17 15 12 13 12 11 11 12 13 14 15 15 16 17 16 16 17 16 16
3 7 5 4 3 0 3 2 4 6 7 4 10 19 15 17 17 23 23 22 23 26 24 27 25 24 23 20 19 18 16 15 14 14 13 11 12 13 14 15 16 16 16 15 16 17 17 18 18
5 3 6 3 4 4 1 6 6 7 6 2 11 17 19 17 19 21 22 20 25 27 23 25 25 24 21 21 18 16 15 16 15 15 15 11 13 15 16 16 15 15 13 13 14 14 16 17 18
3 6 4 4 3 3 3 3 1 0 5 5 12 16 14 16 20 16 21 22 28 29 31 29 26 25 22 21 18 17 16 17 16 16 15 13 12 14 15 15 13 12 11 11 11 12 14 15 17
4 4 1 5 5 5 4 3 4 3 2 4 5 7 10 11 18 22 28 29 34 34 33 31 29 26 22 23 20 19 17 16 16 16 15 14 13 14 14 13 11 9 8 7 8 9 10 11 15
6 6 5 4 8 3 6 6 3 2 4 5 3 5 7 8 19 22 26 28 31 32 34 32 30 28 24 22 21 19 17 16 16 16 16 15 13 13 12 11 9 7 5 3 4 6 9 11 14
3 6 5 2 5 4 4 4 3 1 5 7 8 8 8 7 9 19 25 29 31 33 34 33 31 29 26 23 22 19 16 15 16 16 16 15 13 12 10 9 7 5 2 0 3 5 8 10 12
3 5 3 6 6 2 2 3 4 3 3 8 8 8 7 10 13 17 25 26 28 32 31 32 29 27 25 24 22 18 16 16 16 15 14 13 12 11 10 8 6 5 4 3 4 4 5 8 12
2 5 5 3 5 5 7 5 8 7 5 7 8 8 6 6 0 8 18 24 27 27 32 33 31 28 29 28 23 19 20 19 17 15 14 13 12 11 11 9 8 7 7 6 5 4 5 6 11
9 5 4 2 3 3 5 9 8 7 6 6 7 6 7 4 4 8 17 24 28 31 33 31 30 32 31 28 24 19 20 18 16 15 14 14 13 13 12 11 11 10 10 10 8 7 5 5 7
8 4 5 4 3 3 4 5 4 6 5 4 4 6 5 9 8 7 13 21 25 31 33 31 32 31 29 25 21 14 17 13 16 17 17 17 16 16 16 15 14 14 13 13 11 9 7 4 2
8 6 5 6 4 3 1 4 4 3 7 4 3 2 5 4 4 5 8 16 24 28 28 30 29 29 26 23 21 20 21 17 17 17 16 16 18 18 18 18 18 17 15 14 11 9 7 6 5
6 1 5 4 4 2 1 1 6 1 6 7 6 5 2 2 1 6 7 14 20 24 25 26 26 26 24 23 22 20 18 16 11 13 13 13 15 17 18 18 17 16 15 13 11 9 7 7 8
8 6 7 5 3 1 5 5 5 5 5 0 3 5 0 4 4 4 9 16 17 19 22 23 23 23 23 23 22 19 15 11 10 10 10 10 9 9 8 8 8 7 6 4 5 7 9 11 12
4 5 3 2 1 4 1 5 10 2 2 3 8 6 2 3 2 6 8 15 19 20 20 18 19 20 18 16 16 14 12 10 10 9 8 8 6 3 2 2 2 3 4 6 8 10 11 13 15
2 6 4 5 4 4 2 5 5 2 3 3 6 4 3 3 3 6 7 15 20 18 16 15 15 14 11 11 9 8 7 6 5 3 2 2 1 1 2 3 4 5 6 7 9 11 13 15 17
3 2 3 4 2 2 2 5 3 2 3 4 5 5 3 3 5 7 9 16 18 17 15 15 15 13 11 10 8 7 5 4 3 2 2 1 1 2 3 3 4 7 9 11 13 15 16 17 18
4 6 3 3 2 2 3 4 5 4 6 4 4 5 4 4 6 7 8 16 16 17 17 16 15 15 12 9 7 5 4 3 2 2 1 1 1 2 4 6 9 11 12 14 16 18 18 19 20
2 1 6 4 3 2 2 5 5 4 8 9 8 7 6 6 7 7 9 16 18 18 17 16 13 11 9 6 5 3 3 3 2 1 1 2 3 5 8 10 12 14 17 18 19 19 21 22 22
1 2 5 4 5 2 2 5 0 5 7 9 9 7 5 5 6 6 11 16 16 15 14 12 10 7 5 4 3 4 5 3 1 2 3 4 6 9 10 11 15 18 18 18 19 21 21 22 23
Wind_Direction
335 174 168 60 58 65 265 252 207 152 194 143 97 139 163 88 148 198 148 160 158 153 152 146 140 137 134 130 125 118 113 107 100 97 95 93 92 95 90 88 85 83 71 71 64 60 61 56 56
2 135 91 86 101 87 267 225 205 193 155 130 108 96 91 99 98 121 141 156 161 156 153 147 144 141 137 134 128 123 117 112 107 102 98 98 96 93 90 86 82 77 73 68 61 59 56 57 59
181 162 95 123 132 185 223 219 196 153 148 185 101 48 138 153 78 149 164 158 161 158 157 151 149 143 140 138 134 128 123 119 115 109 105 102 100 97 91 86 81 77 74 68 64 61 59 58 57
172 40 32 125 219 244 200 206 168 125 247 201 123 75 64 277 159 170 158 160 163 161 161 152 151 147 143 140 137 133 128 125 121 115 112 112 106 101 96 91 83 79 75 70 66 63 60 58 55
91 67 99 241 253 261 239 200 160 160 157 152 149 166 79 78 150 156 159 165 166 162 158 156 155 152 149 146 142 139 134 132 127 115 120 124 113 106 99 91 84 77 74 68 66 69 62 60 62
53 109 108 221 243 251 268 183 147 161 151 152 96 121 149 163 151 160 165 168 168 161 162 159 162 157 156 152 149 146 142 140 139 132 119 101 96 96 92 89 83 78 76 69 70 71 68 65 70
145 125 207 201 244 292 238 153 172 166 144 222 152 127 125 170 165 164 168 169 168 167 165 167 164 164 160 154 152 154 148 141 128 121 112 113 101 100 95 88 88 80 76 72 72 71 69 70 71
132 135 174 220 204 255 190 174 156 157 204 82 162 175 198 198 166 167 170 170 171 173 171 168 165 165 161 157 147 148 148 142 139 126 118 112 110 103 105 96 89 84 79 76 77 76 73 70 69
141 116 201 210 169 233 142 172 155 126 123 197 178 154 208 159 163 155 155 165 173 178 177 173 169 166 164 160 160 153 152 143 132 132 130 126 120 119 120 103 92 87 82 79 80 75 70 67 66
163 174 209 206 193 202 238 192 173 153 136 199 144 63 136 149 155 157 166 174 180 184 182 180 174 173 168 165 165 160 160 156 147 137 134 128 129 129 122 110 104 97 95 91 86 80 74 67 61
192 205 208 229 247 302 259 264 207 152 205 200 186 153 156 154 162 167 176 181 186 188 185 186 184 179 176 173 170 167 167 163 154 149 143 134 128 125 120 114 108 104 99 93 86 77 67 61 54
212 223 179 216 186 17 226 195 219 205 221 210 156 162 158 167 173 175 180 183 182 189 185 192 190 181 179 178 177 176 180 177 168 162 156 147 137 132 127 123 117 110 101 93 81 71 63 56 49
216 235 189 168 174 157 257 242 237 223 304 55 136 159 171 176 178 182 184 179 183 187 186 195 192 188 183 183 180 181 178 181 175 168 162 156 148 141 136 128 122 113 104 90 80 69 58 51 45
226 190 199 222 205 176 160 264 187 7 341 112 150 169 167 175 179 165 174 179 188 192 194 196 195 193 188 181 187 180 175 174 174 169 164 160 156 148 144 136 128 117 102 89 74 60 50 42 36
205 168 305 213 182 206 135 252 226 298 356 113 134 165 155 175 174 184 183 185 193 200 197 198 194 195 186 189 185 181 178 179 179 175 170 165 161 156 150 145 138 125 108 87 70 55 41 28 25
149 135 204 222 153 189 161 235 240 358 133 166 199 204 156 181 191 196 190 190 196 199 201 199 195 191 191 190 193 187 184 185 184 177 172 170 169 167 162 157 150 140 127 93 49 31 22 18 14
240 195 179 197 200 126 171 217 210 227 184 196 214 193 187 195 195 201 202 202 202 207 204 199 194 191 188 191 190 185 186 186 184 179 176 177 178 177 180 178 175 175 179 190 5 7 4 2 2
175 119 111 162 185 122 208 220 278 269 215 221 220 210 212 208 211 193 197 202 202 206 206 201 193 184 186 184 177 180 185 186 184 181 183 186 190 194 200 205 211 223 239 274 310 334 346 353 353
222 148 146 190 169 135 204 217 227 233 248 246 235 233 233 245 12 202 193 193 196 200 199 193 188 185 182 176 175 181 188 189 189 189 193 199 207 214 218 227 234 248 261 266 278 300 322 345 353
252 223 175 69 125 128 182 241 236 233 237 221 228 249 248 235 191 176 181 180 191 193 195 189 186 181 182 184 184 191 191 196 200 201 208 215 220 227 235 243 249 259 260 257 267 269 287 320 353
233 216 160 149 106 69 122 300 202 228 234 242 214 218 220 209 206 183 177 178 182 188 190 189 185 181 185 187 188 188 191 202 208 214 221 227 233 237 243 247 251 255 257 255 259 259 262 270 283
222 181 143 133 110 192 46 263 267 223 242 228 203 197 171 183 180 168 172 173 184 182 186 187 182 187 189 192 196 198 197 202 217 224 233 236 239 245 250 253 253 256 256 257 263 259 259 245 253
214 102 128 119 109 120 70 95 266 86 266 235 193 209 184 55 187 187 174 175 183 183 180 180 186 190 194 201 205 209 211 219 231 230 237 241 241 245 249 252 256 258 257 260 257 256 255 266 267
148 86 50 53 82 334 210 167 271 202 221 57 171 198 348 349 343 131 156 166 164 175 178 184 188 195 204 208 212 219 227 234 232 231 236 242 249 253 255 257 253 248 243 237 254 270 275 275 270
101 85 40 48 33 215 256 167 238 227 312 236 187 189 12 6 141 154 147 144 157 165 173 183 196 202 208 213 219 228 238 245 251 255 258 257 258 240 200 199 216 250 268 275 277 278 278 278 277
81 154 152 193 181 212 83 223 253 277 324 45 102 102 54 62 138 150 146 143 151 158 164 176 180 186 197 206 213 224 233 238 240 231 204 175 167 196 230 254 271 284 293 298 297 293 290 286 283
166 145 120 106 29 59 240 301 300 105 83 94 100 93 93 94 121 127 123 135 137 141 148 152 150 145 138 133 131 130 129 125 124 125 129 171 212 232 262 285 306 310 305 301 296 293 290 286 283
178 169 105 17 97 278 301 280 244 216 204 167 158 157 147 118 115 112 109 121 124 129 130 131 130 127 127 128 127 124 126 132 135 128 134 253 256 273 298 308 307 305 305 304 301 298 296 293 292
101 65 63 99 153 181 308 267 215 232 198 187 191 190 165 150 137 123 108 115 118 122 128 128 128 130 134 138 143 151 154 155 145 154 255 255 270 290 296 301 305 306 305 304 300 297 298 296 295
151 201 129 145 204 234 152 278 20 273 214 173 186 185 178 162 146 129 126 128 128 130 131 131 133 135 133 145 162 168 164 168 215 277 261 277 292 295 298 302 304 304 303 302 298 299 298 294 292